CAPE
37 633 223 61 74 246 71 96 86 165 44 32 46 88 44 17 115 92 14 0 1 5 184 79 11 89 75 5 28 22 4 51 81 109 296 246 234 154 115 195 186 197 180 280 303 278 285 514 648 381 281 146 113 37 20 0 0 173 162 185 190 27 225 193 9 4 4 0 3 6 1 38 17 11 1 3 7 0 0 0 0 0 1 2 2 2
72 200 234 318 342 214 188 138 88 82 36 15 205 190 8 7 0 6 17 0 64 67 69 77 140 15 90 0 0 0 1 3 42 84 198 290 142 81 90 88 162 116 478 135 209 202 251 492 514 596 523 406 205 103 1 7 0 213 155 24 176 165 222 39 204 366 354 387 403 341 124 0 10 16 40 30 5 0 0 0 0 1 0 1 9 13
194 92 163 275 213 247 177 164 139 75 46 68 43 21 118 361 0 9 0 1 40 94 574 96 84 241 52 2 0 0 0 0 72 66 19 126 139 174 203 125 368 76 351 240 133 104 335 422 392 534 694 559 376 262 18 21 25 74 73 180 56 144 83 0 0 8 153 23 112 304 60 58 4 6 0 0 0 0 0 9 0 66 8 0 0 0
25 103 121 51 214 174 196 87 121 49 23 738 68 165 64 1 0 0 0 4 0 17 71 3 15 13 187 58 4 3 0 66 58 88 61 51 57 82 270 166 111 52 395 124 176 225 164 385 706 592 762 820 680 463 196 42 78 12 79 196 218 245 67 285 42 0 0 0 36 35 85 22 12 0 3 0 0 0 0 0 1 0 0 0 0 0
49 29 29 18 64 110 198 157 123 129 520 123 108 335 56 0 0 44 0 0 8 0 1 11 155 8 34 21 85 44 45 57 173 92 121 229 114 105 312 184 212 209 375 208 234 618 554 722 774 791 866 964 804 506 379 221 28 1 66 143 102 374 1 0 107 0 0 23 46 76 4 0 0 0 0 0 1 0 0 1 1 202 0 0 0 0
25 54 31 16 39 47 52 66 153 68 142 58 287 222 330 82 238 0 9 23 27 95 12 23 74 88 43 1 1 3 78 30 122 166 42 45 210 85 254 162 444 247 413 372 488 499 432 852 988 969 846 729 681 634 707 494 58 124 144 153 111 242 173 10 0 0 0 115 0 1 0 6 0 0 2 1 42 1 4 0 1 0 0 0 0 0
661 375 64 191 87 218 20 382 158 102 258 187 136 46 150 137 58 9 12 29 45 6 49 3 32 74 37 47 18 59 12 68 496 224 101 165 179 166 530 231 379 266 353 484 523 412 427 989 1010 1135 969 702 712 543 533 459 116 45 69 40 0 174 125 0 2 0 0 8 91 73 1 46 134 212 267 68 2 0 0 0 0 0 0 0 0 1
119 145 67 129 68 48 30 118 88 229 172 134 122 74 86 220 71 70 28 4 64 43 64 60 62 14 29 37 33 2 95 87 202 102 91 55 79 155 481 386 322 254 253 288 710 593 631 1025 1143 1195 1018 811 691 642 423 570 235 2 41 7 0 106 2 0 18 0 0 10 83 46 59 139 39 0 8 66 174 0 0 0 0 0 0 3 8 0
154 93 41 150 208 65 139 61 108 171 142 121 38 83 122 91 63 107 623 284 422 147 136 92 43 36 50 65 20 0 62 108 122 88 39 166 527 238 595 286 165 381 206 272 364 611 680 1132 1263 1311 1063 743 686 556 615 535 367 16 0 25 0 20 9 0 13 0 0 22 191 169 82 28 24 0 3 0 0 204 0 0 11 0 0 0 0 0
36 30 43 190 162 33 68 31 76 97 109 129 14 70 46 404 324 73 50 327 433 100 51 114 112 112 68 107 49 21 183 93 64 82 55 230 63 106 146 156 129 369 212 189 309 545 983 1221 1487 1567 1291 926 759 626 555 631 672 146 6 0 0 0 0 0 0 0 0 0 0 98 85 93 143 125 32 0 0 1 0 0 0 0 0 0 2 1
44 3 98 159 122 97 44 34 38 65 26 49 5 68 151 819 951 242 506 582 105 14 142 155 96 84 29 3 195 24 76 213 89 114 64 53 50 58 226 95 90 214 120 329 181 422 645 860 1045 1458 1256 1165 949 874 629 692 630 335 161 1 0 16 0 2 0 0 0 0 0 0 0 0 0 0 2 13 0 0 0 0 0 23 0 0 0 0
1 0 7 15 61 65 42 79 86 79 73 55 307 388 1119 97 142 902 60 178 111 163 65 118 20 287 162 170 219 721 45 89 117 90 86 76 51 90 172 172 111 185 126 118 204 280 334 1032 1190 1447 1346 1316 1142 953 783 615 565 422 332 166 22 39 3 69 0 0 0 0 0 0 0 0 0 0 0 1 0 0 0 10 4 5 80 0 0 0
27 3 12 114 26 76 25 91 81 241 159 27 64 404 509 36 14 18 133 0 13 145 225 12 155 107 245 159 204 1 4 67 21 49 54 14 6 104 44 162 66 69 111 119 136 574 1054 1232 1592 1570 1275 1205 1138 1121 819 788 593 459 524 406 242 84 4 100 0 0 0 0 0 0 0 0 0 0 0 0 0 0 0 0 71 1 7 1 2 2
2 11 52 138 20 0 49 101 823 10 19 109 122 780 78 7 5 45 10 72 191 166 56 382 32 28 6 0 9 4 2 26 88 19 0 126 169 88 24 105 41 96 122 224 685 883 1122 1293 1119 1690 1521 1211 1217 970 776 666 724 578 638 845 414 337 17 39 2 0 0 0 0 0 0 0 0 0 0 0 0 0 30 0 0 0 0 0 0 0
2 0 4 55 37 38 38 470 40 45 0 675 28 108 23 28 72 10 82 18 197 162 27 0 107 52 4 0 54 9 0 37 52 47 150 58 12 112 99 55 56 140 345 347 482 440 443 743 1189 1648 1758 1628 1338 1161 834 873 599 542 970 980 937 595 175 120 38 0 0 0 0 0 0 0 0 0 0 0 0 0 0 0 0 0 0 0 0 0
0 1 2 0 12 14 2 57 42 89 66 46 64 30 34 335 194 63 59 163 48 46 2 26 39 9 305 2 0 0 0 0 44 100 132 53 0 74 39 232 84 132 190 167 302 555 453 785 937 1231 1948 2028 1637 1441 1234 927 865 867 951 961 1000 959 582 315 76 1 0 0 0 0 0 0 0 0 0 0 5 0 0 0 0 0 1 0 0 0
0 242 5 2 0 21 2 19 4 44 46 396 51 100 90 113 406 10 353 285 193 102 43 0 168 0 0 0 0 0 0 0 12 0 20 1 2 191 190 66 14 19 19 119 277 156 553 378 793 1059 1457 1595 1897 1676 1448 1462 1169 1039 1168 1104 1148 1077 805 501 260 105 0 0 0 0 0 0 0 0 0 0 0 0 0 0 0 0 0 0 12 0
151 14 0 0 4 6 5 16 20 31 43 38 70 64 25 0 10 28 229 0 0 247 2 13 124 3 0 0 0 0 0 0 0 0 0 60 0 34 162 137 24 4 10 49 107 303 322 543 684 674 1213 1185 1477 1701 1530 1683 1452 1584 1425 1302 1187 1165 1096 716 408 97 7 0 0 0 0 0 0 0 0 0 0 0 0 0 0 0 0 0 0 0
0 0 0 7 1 0 0 12 25 108 30 16 29 0 1 120 3 178 7 0 1 2 0 12 38 69 242 37 0 1 1 0 1 2 24 22 0 14 61 0 30 76 312 126 88 407 714 803 920 1030 971 390 1025 2047 1326 1169 1074 1223 1581 1623 1496 1300 1297 968 445 195 72 3 0 0 0 0 0 0 0 0 0 0 0 0 0 0 0 0 0 0
0 0 0 0 0 0 0 0 5 54 15 0 12 1 0 0 101 46 53 791 13 25 22 0 112 212 274 415 80 0 40 0 24 26 21 4 0 24 0 2 26 368 700 15 196 203 474 656 501 635 861 223 804 1349 1040 1423 942 1073 1477 1659 1592 1495 1289 1179 751 615 285 20 0 0 0 0 0 0 0 0 0 0 0 0 0 0 1 14 5 2
0 0 0 2 0 0 8 0 0 18 6 2 0 6 30 4 18 0 76 45 49 4 0 0 6 10 167 169 89 16 46 0 32 30 51 31 8 46 74 298 214 116 324 145 111 259 233 785 570 479 1009 223 599 482 323 789 1251 990 1375 1084 978 1554 1118 1068 905 738 540 519 136 0 0 0 0 0 0 0 0 0 0 0 0 0 0 0 10 0
0 0 0 0 0 0 1 0 0 7 4 15 0 0 2 21 15 0 81 89 38 26 0 0 74 161 4 63 32 118 37 12 15 11 48 34 5 254 362 683 1048 531 592 761 756 273 403 921 468 152 274 108 454 253 26 417 617 652 969 746 1089 1063 1016 893 760 874 673 684 591 111 0 0 0 0 0 0 0 0 0 0 0 0 0 0 0 0
2 1 0 0 14 162 0 2 0 0 7 4 14 6 0 33 111 38 12 105 37 1 0 135 24 6 42 2 13 0 18 4 35 1 0 50 8 156 307 543 693 639 366 417 680 372 564 634 382 148 277 94 238 397 142 382 520 415 572 313 344 777 1040 847 854 715 816 776 701 428 155 4 0 0 0 0 0 0 0 0 0 0 0 0 0 0
455 1 0 0 0 1 2 0 0 0 0 16 42 17 2 6 58 350 22 63 18 106 1 5 1 1 1 4 0 19 58 18 0 0 0 24 39 246 328 586 470 962 890 441 854 673 859 422 383 72 370 166 37 501 314 450 453 360 348 312 146 720 1056 816 1152 931 711 833 788 646 398 115 6 0 0 0 0 0 0 0 0 0 0 0 0 0
0 4 0 1 0 2 1 0 0 0 0 2 2 48 26 123 100 57 145 146 208 54 0 1 2 24 1 0 0 0 5 2 0 9 50 199 853 643 280 404 543 1478 853 378 356 419 998 620 238 39 208 260 210 379 1111 662 662 406 579 804 466 352 1282 1163 1113 1007 740 621 870 858 701 520 134 6 0 0 0 0 0 0 0 0 0 0 0 0
0 4 0 0 0 2 0 0 0 0 0 0 0 0 57 32 95 104 0 142 0 14 9 3 0 38 2 0 0 0 0 0 0 9 20 82 352 231 268 685 1137 1218 770 581 423 1136 998 274 73 271 358 313 358 279 561 1025 371 361 621 908 897 376 1430 1039 1187 1044 1146 951 975 996 948 816 552 205 19 0 0 0 0 0 0 0 0 0 0 0
0 1 0 0 0 0 0 0 0 4 22 0 0 0 0 1 0 68 89 64 30 23 0 35 37 119 1 0 1 0 22 0 0 0 2 23 58 644 894 728 1080 972 769 515 1138 930 1057 972 1037 491 409 189 394 380 116 527 492 114 428 1188 718 780 948 1512 1673 1302 1192 1171 966 972 1033 1014 845 678 270 45 3 1 0 0 0 0 0 0 0 0
0 0 0 0 0 0 0 0 0 0 0 0 0 0 0 0 0 88 60 34 54 29 5 239 35 40 40 18 0 43 18 66 99 36 6 148 194 78 303 680 405 364 487 562 1066 903 1011 241 431 1032 1526 1175 438 248 340 564 569 473 560 557 670 685 817 1096 1721 1457 1301 1266 1248 1196 1249 1163 1126 949 801 464 117 1 0 0 0 0 0 0 0 0
1 0 0 0 0 0 0 0 0 0 0 0 0 0 0 0 2 159 233 10 188 19 126 278 55 314 72 73 95 52 50 174 8 5 71 134 53 164 360 202 35 123 338 169 614 572 626 367 336 976 1273 1310 1100 870 589 145 423 652 481 397 571 538 484 1662 1673 1460 1368 1400 1480 1410 1294 1419 1238 1179 1070 776 316 54 0 0 0 0 0 0 0 0
0 0 2 0 0 0 0 0 0 0 0 0 0 3 7 2 0 2 24 16 8 33 30 44 14 61 56 3 35 92 166 71 116 5 171 67 34 118 23 141 3 46 221 170 411 248 322 271 584 841 1023 1426 1282 571 155 57 220 415 404 430 485 1106 1472 1796 1777 1572 1588 1413 1452 1610 1418 1338 1308 1116 1062 938 701 237 43 2 0 0 0 0 0 0
0 0 0 0 0 0 0 0 0 0 0 0 0 0 0 0 0 0 0 24 42 12 0 0 201 133 12 420 60 200 435 18 274 22 87 208 46 120 62 44 189 151 140 275 230 224 332 632 563 669 774 977 1188 917 1137 1827 521 645 840 633 636 902 1170 727 1597 1218 1370 1288 1226 1684 1604 1403 1378 1294 1209 996 847 784 357 67 13 10 0 0 0 0
567 0 0 0 0 0 0 0 0 0 0 0 0 0 0 0 27 0 47 33 64 138 170 367 223 48 74 143 241 446 285 10 122 134 175 115 214 230 60 84 132 110 151 182 112 197 441 514 801 1000 748 536 944 818 601 1406 944 1064 958 985 1015 888 1147 1478 982 938 1308 1326 1389 1296 1365 1098 1119 975 1061 1038 902 558 446 267 135 24 2 2 31 38
395 211 0 0 0 0 0 0 0 0 0 0 10 0 0 0 0 3 0 0 1 82 343 80 127 133 193 59 80 119 74 0 9 79 265 113 150 194 80 140 146 283 245 99 55 76 185 516 631 1112 810 581 348 225 878 883 779 1270 1620 1664 1483 1010 1296 967 814 864 1094 1166 1180 1079 1328 1008 853 800 850 874 861 980 1143 824 279 332 260 38 37 41
477 292 189 40 3 3 0 0 0 1 0 0 0 0 0 0 0 0 1 5 12 0 10 70 202 492 237 319 255 307 76 9 73 258 202 411 625 341 66 150 338 152 358 122 47 116 524 555 733 958 812 667 1016 973 1369 1534 1477 1441 1109 976 1049 1034 912 830 790 795 693 645 660 590 548 466 372 325 389 470 453 464 384 340 284 483 454 262 233 124
269 463 454 327 67 0 0 22 0 0 0 0 0 0 0 0 0 0 0 0 1 0 0 10 26 248 227 265 166 385 330 76 15 20 115 25 390 451 378 262 266 597 690 659 564 718 988 1438 1526 1501 1423 949 1272 1546 1417 1124 1137 879 1112 1045 665 622 562 779 218 538 202 46 1 61 54 1 2 66 122 189 206 220 240 292 364 442 438 449 290 166
67 176 287 303 163 25 0 0 0 0 0 1 0 0 0 1 4 1 3 1 0 1 0 81 78 186 341 262 133 102 178 58 34 65 116 266 1012 642 282 706 924 759 1020 1926 2241 2177 1939 1565 2060 1970 1846 1402 986 958 864 893 719 553 650 525 228 148 0 0 0 0 1 0 6 0 0 0 0 2 1 1 3 6 11 74 226 281 464 439 486 379
26 30 327 147 146 55 0 0 0 0 0 0 13 39 56 92 78 6 0 2 17 15 34 24 38 39 55 33 81 21 72 36 200 331 402 183 448 362 460 800 1067 1738 2039 1959 2002 2187 2262 2114 1935 1771 1578 1195 776 522 510 330 103 0 0 0 0 0 0 0 0 0 0 0 0 0 0 0 0 0 1 0 0 4 28 52 50 60 151 143 131 142
6 241 361 130 82 52 45 64 5 0 0 8 70 336 269 258 33 312 8 6 1 4 40 84 40 68 56 80 52 63 42 110 506 531 283 194 96 108 587 1136 1763 1882 1897 1797 1630 1487 1482 1218 893 722 396 26 22 0 0 0 0 0 0 0 0 0 0 0 0 0 0 0 0 0 0 0 0 0 0 0 0 0 2 0 3 34 54 58 72 76
76 168 27 150 74 67 5 0 0 0 0 0 199 103 329 299 69 364 0 0 44 31 4 32 48 83 302 234 297 90 80 141 413 281 1118 318 296 1333 1558 1724 1769 1706 1528 1337 1107 889 556 321 48 0 16 6 0 0 0 0 0 0 0 0 0 0 0 0 0 0 0 0 0 0 0 0 0 0 0 0 0 0 1 2 7 7 20 35 40 40
38 349 686 0 2 54 23 7 2 0 0 260 77 175 174 222 69 128 0 0 188 276 104 180 26 122 1051 677 307 203 81 22 412 1070 851 1000 1595 1852 1671 1535 1366 1013 1010 671 367 110 15 9 7 5 1 0 6 4 0 0 0 0 0 0 0 0 0 0 0 0 0 0 0 0 0 0 0 0 0 0 0 6 1 0 0 0 0 0 5 8
90 31 166 24 22 76 4 8 64 49 10 38 10 12 82 288 48 0 0 0 1133 768 733 650 165 116 845 952 553 361 369 742 527 1456 1145 1549 1518 1401 1230 1107 985 723 396 151 20 5 20 8 0 0 0 0 0 0 0 0 0 0 0 0 0 0 0 0 0 0 0 0 0 0 0 0 0 0 0 2 9 0 0 0 0 3 8 15 12 17
34 177 0 41 4 19 59 6 34 65 1396 1075 549 90 217 275 17 0 10 1309 1130 665 632 336 10 1182 1240 1203 664 298 402 792 566 899 1684 1641 1394 1064 993 894 735 471 115 45 142 124 22 0 0 0 0 0 0 0 0 0 0 0 0 0 0 0 0 0 0 0 0 0 0 0 0 0 0 0 1 6 2 0 0 0 0 9 25 28 32 31
55 0 8 15 13 13 20 13 25 18 805 1339 602 263 374 32 12 125 1272 1070 698 266 133 105 278 1169 1181 1219 633 1000 784 807 1221 1549 1654 1368 1065 881 709 567 440 150 106 248 82 0 0 0 0 0 0 0 0 0 0 0 0 0 0 0 0 0 0 0 0 0 0 0 0 0 0 0 0 3 0 2 2 0 0 0 2 21 30 37 52 55
37 45 28 12 85 11 0 5 8 873 614 1518 1367 538 357 340 1131 1204 608 1052 777 664 454 323 636 1243 1157 1392 1667 1667 1393 1568 1818 1690 1506 1120 812 609 495 402 240 101 26 6 0 0 0 0 0 0 0 0 0 0 0 0 0 0 0 0 0 0 0 0 0 0 0 0 0 0 0 0 0 0 0 1 0 0 0 0 0 1 2 11 38 46
27 65 61 25 6 74 181 421 418 592 850 1107 1531 1482 2131 1419 2655 2555 1418 607 844 670 987 437 1560 1702 1310 2065 2120 2066 1824 1832 1660 1480 1302 1036 603 417 349 197 211 124 11 0 0 0 0 0 0 0 0 0 0 0 0 0 0 0 0 0 0 0 0 0 0 0 0 0 0 0 0 0 0 0 0 0 0 0 0 0 0 0 0 0 0 5
63 28 54 27 41 15 73 254 935 616 580 347 727 947 1452 1786 1732 1604 1067 353 532 1020 925 929 1844 1443 2325 2426 1872 1879 1914 1715 1367 1027 684 547 480 358 331 252 105 17 0 0 0 0 0 0 0 0 0 0 0 0 0 0 0 0 0 0 0 0 0 0 0 0 0 0 0 0 0 0 0 0 0 0 0 0 0 0 0 0 0 0 0 0
31 22 47 29 56 36 49 299 329 315 274 367 464 767 1517 1683 1541 1115 1525 593 799 836 1225 1535 1467 1753 2363 2230 2107 1955 1451 1124 880 724 587 515 450 379 306 196 61 7 0 0 0 0 0 0 0 0 0 0 0 0 0 0 0 0 0 0 0 0 0 0 0 0 0 0 0 0 0 0 0 0 0 0 0 0 0 0 0 0 0 0 0 0
2 0 85 32 37 28 20 2 54 116 470 157 422 766 975 1124 1409 1193 1262 1435 775 1167 664 2119 2265 2684 2266 2244 2028 1513 1283 955 795 673 547 453 370 286 177 37 16 0 0 0 0 0 0 0 0 0 0 0 0 0 0 0 0 0 0 0 0 0 0 0 0 0 0 0 0 0 0 0 0 0 0 0 0 0 0 0 0 0 2 1 6 4
0 0 0 0 38 58 31 114 0 95 125 194 152 413 800 1037 1092 1218 1456 1745 1632 862 1340 2441 2543 2342 2296 2068 1537 1169 972 776 673 563 450 339 275 169 76 8 0 0 0 0 0 0 0 0 0 0 0 0 0 0 0 0 0 0 0 0 0 0 0 0 0 0 0 0 0 0 0 0 0 0 0 0 0 0 0 0 0 0 0 0 0 0
0 2 56 0 0 38 56 17 1 45 47 110 229 335 604 743 639 1190 1436 1400 1057 1384 1899 2512 2206 2191 2036 1588 1504 1170 1038 746 681 677 402 305 207 122 28 0 0 0 0 0 0 0 0 0 0 0 0 0 0 0 0 0 0 0 0 0 0 0 0 0 0 0 0 0 0 0 0 0 0 0 0 0 0 0 0 0 0 0 0 0 0 0
0 0 27 4 0 3 41 47 18 80 55 96 75 16 308 444 456 802 890 1158 1134 1004 1617 1760 1664 1792 1578 1340 1241 1109 865 848 557 452 339 230 125 50 10 0 0 0 0 0 0 0 0 0 0 0 0 0 0 0 0 0 0 0 0 0 0 0 0 0 0 0 0 0 0 0 0 0 0 0 0 0 0 0 0 0 0 0 0 0 0 0
Wind_Speed
nan 4 2 nan nan 5 nan nan nan 10 nan nan nan nan nan nan 5 nan nan nan nan nan 6 nan nan nan nan nan nan nan nan nan nan 16 15 16 16 15 16 15 14 9 10 11 10 10 11 12 13 14 15 16 15 nan nan nan nan 16 16 15 15 nan 12 13 nan nan nan nan nan nan nan nan nan nan nan nan nan nan nan nan nan nan nan nan nan nan
nan 4 4 6 8 6 10 13 nan nan nan nan 16 19 nan nan nan nan nan nan nan nan nan nan 4 nan nan nan nan nan nan nan nan nan 15 16 17 nan nan nan 13 13 9 11 10 11 13 12 14 13 14 15 16 16 nan nan nan 16 16 nan 14 13 12 nan 11 10 11 7 7 6 10 nan nan nan nan nan nan nan nan nan nan nan nan nan nan nan
3 nan 7 7 7 6 8 12 18 nan nan nan nan nan 14 12 nan nan nan nan nan nan 4 nan nan 11 nan nan nan nan nan nan nan nan nan 14 16 15 15 14 15 nan 9 10 11 12 11 15 17 15 15 16 17 17 nan nan nan nan nan 15 nan 13 nan nan nan nan 8 nan 7 8 nan nan nan nan nan nan nan nan nan nan nan nan nan nan nan nan
nan 10 8 nan 5 6 10 nan 10 nan nan 8 nan 9 nan nan nan nan nan nan nan nan nan nan nan nan 7 nan nan nan nan nan nan nan nan nan nan nan 13 12 11 nan 10 10 11 12 14 15 16 16 16 16 16 17 18 nan nan nan nan 15 14 14 nan 13 nan nan nan nan nan nan nan nan nan nan nan nan nan nan nan nan nan nan nan nan nan nan
nan nan nan nan nan 7 5 8 7 8 9 5 6 7 nan nan nan nan nan nan nan nan nan nan 4 nan nan nan nan nan nan nan 14 nan 12 12 14 9 5 7 12 10 9 10 12 10 12 15 16 17 16 16 17 17 18 17 nan nan nan 15 15 14 nan nan 13 nan nan nan nan nan nan nan nan nan nan nan nan nan nan nan nan 16 nan nan nan nan
nan nan nan nan nan nan nan nan 14 nan 8 nan 3 3 10 nan 12 nan nan nan nan nan nan nan nan nan nan nan nan nan nan nan 12 11 nan nan 12 nan 13 14 12 13 11 13 11 14 14 15 15 16 17 18 18 18 16 16 nan 16 16 17 17 15 15 nan nan nan nan 13 nan nan nan nan nan nan nan nan nan nan nan nan nan nan nan nan nan nan
12 19 nan 8 nan 9 nan 14 8 2 6 7 2 nan 7 6 nan nan nan nan nan nan nan nan nan nan nan nan nan nan nan nan 11 15 13 9 8 13 13 14 13 14 13 11 11 14 14 14 16 16 17 19 18 18 17 16 17 nan nan nan nan 16 15 nan nan nan nan nan nan nan nan nan 16 15 13 nan nan nan nan nan nan nan nan nan nan nan
10 14 nan 13 nan nan nan 5 nan 4 7 8 7 nan nan 6 nan nan nan nan nan nan nan nan nan nan nan nan nan nan nan nan 13 14 nan nan nan 16 11 13 14 16 14 14 12 12 13 14 15 16 18 18 17 16 17 16 16 nan nan nan nan 16 nan nan nan nan nan nan nan nan nan 13 nan nan nan nan 14 nan nan nan nan nan nan nan nan nan
20 nan nan 8 13 nan 6 nan 6 7 5 8 nan nan 10 nan nan 3 5 8 3 2 5 nan nan nan nan nan nan nan nan 15 12 nan nan 22 19 16 16 17 15 15 13 14 13 13 13 14 15 17 19 19 17 17 16 18 17 nan nan nan nan nan nan nan nan nan nan nan 15 15 nan nan nan nan nan nan nan 15 nan nan nan nan nan nan nan nan
nan nan nan 11 8 nan nan nan nan nan 9 9 nan nan nan 13 10 nan nan 8 3 3 nan 6 7 6 nan 6 nan nan 13 nan nan nan nan 12 nan 12 13 15 11 10 11 13 13 15 15 15 16 18 18 18 17 18 18 18 17 17 nan nan nan nan nan nan nan nan nan nan nan nan nan nan 16 16 nan nan nan nan nan nan nan nan nan nan nan nan
nan nan nan 8 8 nan nan nan nan nan nan nan nan nan 5 17 14 8 4 6 4 nan 9 14 nan nan nan nan 9 nan nan 6 nan 10 nan nan nan nan 14 nan nan 11 13 13 14 15 18 18 17 18 18 17 17 17 19 18 18 19 18 nan nan nan nan nan nan nan nan nan nan nan nan nan nan nan nan nan nan nan nan nan nan nan nan nan nan nan
nan nan nan nan nan nan nan nan nan nan nan nan 8 13 15 nan 8 4 nan 1 3 7 nan 12 nan 6 4 10 9 12 nan nan 12 nan nan nan nan nan 14 14 14 15 16 16 13 14 13 13 15 16 17 17 18 17 19 19 19 20 20 20 nan nan nan nan nan nan nan nan nan nan nan nan nan nan nan nan nan nan nan nan nan nan nan nan nan nan
nan nan nan 6 nan nan nan nan nan 11 13 nan nan 2 6 nan nan nan 4 nan nan 8 10 nan 5 8 14 11 18 nan nan nan nan nan nan nan nan 14 nan 15 nan nan 15 15 14 10 10 11 12 15 16 16 18 18 20 20 21 21 21 22 21 nan nan nan nan nan nan nan nan nan nan nan nan nan nan nan nan nan nan nan nan nan nan nan nan nan
nan nan nan 7 nan nan nan 4 10 nan nan 4 2 8 nan nan nan nan nan nan 9 9 nan 8 nan nan nan nan nan nan nan nan nan nan nan 8 10 nan nan 11 nan nan 14 13 12 13 13 12 12 13 14 15 16 19 21 21 20 20 21 22 22 23 nan nan nan nan nan nan nan nan nan nan nan nan nan nan nan nan nan nan nan nan nan nan nan nan
nan nan nan nan nan nan nan 13 nan nan nan 7 nan 5 nan nan nan nan nan nan 5 14 nan nan 5 nan nan nan nan nan nan nan nan nan 9 nan nan 7 nan nan nan 13 13 16 16 15 14 12 12 12 13 14 16 18 20 20 21 20 20 22 22 23 23 22 nan nan nan nan nan nan nan nan nan nan nan nan nan nan nan nan nan nan nan nan nan nan
nan nan nan nan nan nan nan nan nan nan nan nan nan nan nan 8 8 nan nan 7 nan nan nan nan nan nan 1 nan nan nan nan nan nan 11 8 nan nan nan nan 7 nan 14 17 16 16 17 15 14 15 15 14 15 16 17 18 20 20 19 20 22 22 22 23 23 nan nan nan nan nan nan nan nan nan nan nan nan nan nan nan nan nan nan nan nan nan nan
nan 4 nan nan nan nan nan nan nan nan nan 6 nan 6 nan 8 9 nan 5 7 6 7 nan nan 5 nan nan nan nan nan nan nan nan nan nan nan nan 5 8 nan nan nan nan 14 17 13 16 16 15 16 15 14 15 16 17 17 18 18 20 22 22 22 23 24 25 24 nan nan nan nan nan nan nan nan nan nan nan nan nan nan nan nan nan nan nan nan
7 nan nan nan nan nan nan nan nan nan nan nan nan nan nan nan nan nan 7 nan nan 8 nan nan 7 nan nan nan nan nan nan nan nan nan nan nan nan nan 8 8 nan nan nan nan 18 16 16 16 15 13 15 16 14 17 17 15 15 17 19 21 22 22 24 25 26 nan nan nan nan nan nan nan nan nan nan nan nan nan nan nan nan nan nan nan nan nan
nan nan nan nan nan nan nan nan nan 5 nan nan nan nan nan 8 nan 7 nan nan nan nan nan nan nan nan 6 nan nan nan nan nan nan nan nan nan nan nan nan nan nan nan 15 13 nan 17 15 16 15 14 16 16 17 17 18 18 18 19 19 20 21 22 23 25 27 27 nan nan nan nan nan nan nan nan nan nan nan nan nan nan nan nan nan nan nan nan
nan nan nan nan nan nan nan nan nan nan nan nan nan nan nan nan 8 nan nan 7 nan nan nan nan 8 4 4 3 nan nan nan nan nan nan nan nan nan nan nan nan nan 12 13 nan 16 20 19 19 19 18 18 18 20 19 16 19 20 21 21 21 22 22 22 24 26 27 27 nan nan nan nan nan nan nan nan nan nan nan nan nan nan nan nan nan nan nan
nan nan nan nan nan nan nan nan nan nan nan nan nan nan nan nan nan nan nan nan nan nan nan nan nan nan 9 11 nan nan nan nan nan nan nan nan nan nan nan 8 11 14 13 11 15 18 20 19 18 18 19 17 22 20 19 22 21 22 22 22 25 24 26 26 25 26 25 25 27 nan nan nan nan nan nan nan nan nan nan nan nan nan nan nan nan nan
nan nan nan nan nan nan nan nan nan nan nan nan nan nan nan nan nan nan nan nan nan nan nan nan nan 9 nan nan nan 14 nan nan nan nan nan nan nan 11 12 9 10 15 15 9 12 15 19 19 19 20 20 15 22 22 nan 24 23 25 24 22 23 26 26 27 27 25 25 23 25 26 nan nan nan nan nan nan nan nan nan nan nan nan nan nan nan nan
nan nan nan nan nan 7 nan nan nan nan nan nan nan nan nan nan 10 nan nan 11 nan nan nan 12 nan nan nan nan nan nan nan nan nan nan nan nan nan 15 15 14 13 17 16 13 11 16 16 18 17 18 20 nan 20 23 24 24 25 24 25 23 22 26 26 27 29 28 26 25 24 26 25 nan nan nan nan nan nan nan nan nan nan nan nan nan nan nan
19 nan nan nan nan nan nan nan nan nan nan nan nan nan nan nan nan 8 nan nan nan 14 nan nan nan nan nan nan nan nan nan nan nan nan nan nan nan 19 17 17 17 17 17 16 13 14 17 15 15 nan 22 20 nan 21 22 22 24 23 23 23 23 26 27 25 26 28 28 26 25 25 26 26 nan nan nan nan nan nan nan nan nan nan nan nan nan nan
nan nan nan nan nan nan nan nan nan nan nan nan nan nan nan 11 6 nan 15 11 10 nan nan nan nan nan nan nan nan nan nan nan nan nan nan 20 17 17 18 18 18 17 17 15 13 15 16 13 15 nan 18 18 18 21 20 23 22 22 20 23 20 19 27 23 22 26 27 26 25 25 25 26 27 nan nan nan nan nan nan nan nan nan nan nan nan nan
nan nan nan nan nan nan nan nan nan nan nan nan nan nan nan nan nan 10 nan 9 nan nan nan nan nan nan nan nan nan nan nan nan nan nan nan nan 18 18 18 18 20 19 18 16 16 18 17 16 nan 15 13 15 15 14 20 21 20 17 18 22 21 16 22 24 22 22 24 25 24 25 26 26 26 28 nan nan nan nan nan nan nan nan nan nan nan nan
nan nan nan nan nan nan nan nan nan nan nan nan nan nan nan nan nan nan nan nan nan nan nan nan nan 13 nan nan nan nan nan nan nan nan nan nan nan 20 19 19 21 19 18 15 15 17 12 14 13 15 17 14 12 14 16 23 21 21 20 21 22 19 17 23 22 21 21 22 24 24 25 26 27 27 27 nan nan nan nan nan nan nan nan nan nan nan
nan nan nan nan nan nan nan nan nan nan nan nan nan nan nan nan nan nan nan nan nan nan nan 16 nan nan nan nan nan nan nan nan nan nan nan 23 21 nan 22 18 23 21 18 17 16 18 15 13 13 14 16 15 8 10 13 21 20 16 18 20 22 21 17 21 22 21 21 21 21 21 23 24 25 26 27 28 31 nan nan nan nan nan nan nan nan nan
nan nan nan nan nan nan nan nan nan nan nan nan nan nan nan nan nan 9 16 nan 13 nan 15 17 nan 15 nan nan nan nan nan 17 nan nan nan 24 nan 20 22 19 nan 23 22 22 21 19 18 17 13 13 17 15 11 8 9 10 15 17 15 19 22 24 25 24 24 22 20 21 21 20 20 21 23 26 29 33 34 nan nan nan nan nan nan nan nan nan
nan nan nan nan nan nan nan nan nan nan nan nan nan nan nan nan nan nan nan nan nan nan nan nan nan nan nan nan nan nan 19 nan 17 nan 17 nan nan 23 nan 22 nan nan 24 24 24 23 22 22 20 19 18 16 13 14 12 nan 14 15 16 18 19 21 23 24 23 21 20 18 20 22 21 21 23 26 30 34 36 38 nan nan nan nan nan nan nan nan
nan nan nan nan nan nan nan nan nan nan nan nan nan nan nan nan nan nan nan nan nan nan nan nan 21 17 nan 26 nan 20 17 nan 17 nan nan 21 nan 24 nan nan 26 24 24 25 25 25 23 24 25 22 21 17 15 16 13 12 14 19 16 15 18 21 23 24 24 21 19 18 19 19 19 21 25 28 30 31 36 33 34 nan nan nan nan nan nan nan
41 nan nan nan nan nan nan nan nan nan nan nan nan nan nan nan nan nan nan nan nan 16 11 14 19 nan nan 25 27 21 17 nan 16 18 18 22 23 24 nan nan 24 22 27 29 28 27 25 28 28 27 23 21 20 21 19 15 16 20 17 18 21 19 19 20 21 18 20 21 22 25 27 28 31 33 31 36 35 35 33 35 37 nan nan nan nan nan
39 37 nan nan nan nan nan nan nan nan nan nan nan nan nan nan nan nan nan nan nan nan 18 nan 19 19 21 nan nan 26 nan nan nan nan 20 22 24 26 nan 23 24 25 29 nan nan nan 27 29 30 28 27 26 23 23 22 20 19 22 21 20 21 20 21 22 19 21 22 22 24 28 30 29 28 31 32 31 31 33 36 39 40 40 42 nan nan nan
40 38 34 nan nan nan nan nan nan nan nan nan nan nan nan nan nan nan nan nan nan nan nan nan 19 27 30 26 21 26 nan nan nan 23 23 22 22 25 nan 22 23 25 27 29 nan 29 33 30 28 28 25 22 22 23 23 20 20 22 22 21 21 22 21 20 23 23 24 23 24 25 27 29 29 31 33 33 34 36 37 38 38 42 45 46 47 48
37 38 33 30 nan nan nan nan nan nan nan nan nan nan nan nan nan nan nan nan nan nan nan nan nan 24 31 29 24 22 20 nan nan nan 27 nan 22 25 23 23 21 24 27 28 30 33 30 30 29 27 25 25 27 25 24 24 23 24 23 21 23 24 24 26 22 25 25 nan nan nan nan nan nan nan 33 35 36 38 40 41 43 44 46 49 49 49
nan 37 37 33 33 nan nan nan nan nan nan nan nan nan nan nan nan nan nan nan nan nan nan nan nan 26 30 27 24 22 23 nan nan nan 29 31 26 24 24 20 23 27 28 30 32 31 31 31 30 27 25 24 25 25 25 27 25 24 25 24 24 26 nan nan nan nan nan nan nan nan nan nan nan nan nan nan nan nan nan nan 44 46 49 50 51 51
nan nan 36 35 34 nan nan nan nan nan nan nan nan nan nan nan nan nan nan nan nan nan nan nan nan nan nan nan nan nan nan nan 25 28 39 30 25 23 21 24 28 32 33 32 32 31 30 30 30 28 26 23 25 25 25 25 26 nan nan nan nan nan nan nan nan nan nan nan nan nan nan nan nan nan nan nan nan nan nan nan nan nan 50 51 50 49
nan 28 39 38 nan nan nan nan nan nan nan nan nan 29 28 26 nan 23 nan nan nan nan nan nan nan nan nan nan nan nan nan 18 30 24 30 28 nan 24 30 31 32 34 33 33 33 32 30 29 29 29 28 nan nan nan nan nan nan nan nan nan nan nan nan nan nan nan nan nan nan nan nan nan nan nan nan nan nan nan nan nan nan nan nan nan nan nan
nan 33 nan 38 nan nan nan nan nan nan nan nan 24 24 18 14 nan 21 nan nan nan nan nan nan nan nan 32 32 28 nan nan 19 27 25 29 32 33 34 32 32 33 34 34 33 34 34 33 30 nan nan nan nan nan nan nan nan nan nan nan nan nan nan nan nan nan nan nan nan nan nan nan nan nan nan nan nan nan nan nan nan nan nan nan nan nan nan
nan 39 48 nan nan nan nan nan nan nan nan 19 nan 24 18 16 nan 24 nan nan 24 20 19 21 nan 26 31 30 27 16 nan nan 23 24 26 31 36 32 33 34 35 35 35 34 34 34 nan nan nan nan nan nan nan nan nan nan nan nan nan nan nan nan nan nan nan nan nan nan nan nan nan nan nan nan nan nan nan nan nan nan nan nan nan nan nan nan
nan nan 50 nan nan nan nan nan nan nan nan nan nan nan nan 22 nan nan nan nan 26 21 29 29 27 26 28 29 21 17 18 19 21 25 27 36 36 34 34 34 34 34 36 37 nan nan nan nan nan nan nan nan nan nan nan nan nan nan nan nan nan nan nan nan nan nan nan nan nan nan nan nan nan nan nan nan nan nan nan nan nan nan nan nan nan nan
nan 51 nan nan nan nan nan nan nan nan 32 37 31 nan 23 28 nan nan nan 26 26 33 28 25 nan 29 29 21 20 18 23 27 29 32 34 34 33 33 33 34 35 37 37 nan 34 33 nan nan nan nan nan nan nan nan nan nan nan nan nan nan nan nan nan nan nan nan nan nan nan nan nan nan nan nan nan nan nan nan nan nan nan nan nan nan nan nan
nan nan nan nan nan nan nan nan nan nan 43 49 41 30 25 nan nan 21 28 30 31 33 28 22 21 26 23 21 21 26 31 30 33 34 33 34 35 35 36 37 37 38 37 35 nan nan nan nan nan nan nan nan nan nan nan nan nan nan nan nan nan nan nan nan nan nan nan nan nan nan nan nan nan nan nan nan nan nan nan nan nan nan nan nan nan nan
nan nan nan nan nan nan nan nan nan 48 49 50 46 37 38 35 30 27 30 31 32 34 31 23 21 23 23 23 29 32 30 32 32 31 32 35 35 35 37 37 37 38 nan nan nan nan nan nan nan nan nan nan nan nan nan nan nan nan nan nan nan nan nan nan nan nan nan nan nan nan nan nan nan nan nan nan nan nan nan nan nan nan nan nan nan nan
nan nan nan nan nan nan 49 50 52 52 48 48 42 37 41 36 32 27 25 32 36 35 30 26 26 27 25 29 31 31 31 31 32 30 31 34 35 36 38 38 37 38 nan nan nan nan nan nan nan nan nan nan nan nan nan nan nan nan nan nan nan nan nan nan nan nan nan nan nan nan nan nan nan nan nan nan nan nan nan nan nan nan nan nan nan nan
nan nan nan nan nan nan nan 47 54 54 56 57 45 35 41 49 45 36 29 34 37 39 31 29 30 28 28 31 31 31 32 34 35 34 35 36 37 36 36 37 38 nan nan nan nan nan nan nan nan nan nan nan nan nan nan nan nan nan nan nan nan nan nan nan nan nan nan nan nan nan nan nan nan nan nan nan nan nan nan nan nan nan nan nan nan nan
nan nan nan nan nan nan nan 55 60 59 55 52 44 33 41 51 47 48 44 37 37 36 33 31 30 29 31 31 34 34 35 36 37 36 37 37 37 37 37 39 nan nan nan nan nan nan nan nan nan nan nan nan nan nan nan nan nan nan nan nan nan nan nan nan nan nan nan nan nan nan nan nan nan nan nan nan nan nan nan nan nan nan nan nan nan nan
nan nan nan nan nan nan nan nan nan 57 50 49 41 38 50 51 49 47 44 40 35 34 32 34 34 35 33 34 37 38 36 36 39 37 37 37 38 39 40 nan nan nan nan nan nan nan nan nan nan nan nan nan nan nan nan nan nan nan nan nan nan nan nan nan nan nan nan nan nan nan nan nan nan nan nan nan nan nan nan nan nan nan nan nan nan nan
nan nan nan nan nan nan nan 58 nan nan 57 56 50 44 44 49 46 41 30 34 38 29 32 36 35 34 34 38 38 38 38 36 37 37 38 38 38 38 nan nan nan nan nan nan nan nan nan nan nan nan nan nan nan nan nan nan nan nan nan nan nan nan nan nan nan nan nan nan nan nan nan nan nan nan nan nan nan nan nan nan nan nan nan nan nan nan
nan nan nan nan nan nan nan nan nan nan nan 57 56 52 48 47 46 43 37 39 36 40 37 40 39 37 37 38 37 38 39 37 37 37 39 37 38 40 nan nan nan nan nan nan nan nan nan nan nan nan nan nan nan nan nan nan nan nan nan nan nan nan nan nan nan nan nan nan nan nan nan nan nan nan nan nan nan nan nan nan nan nan nan nan nan nan
nan nan nan nan nan nan nan nan nan nan nan nan nan nan 48 43 42 44 42 42 41 36 34 30 34 39 39 38 39 40 38 39 40 41 40 39 40 nan nan nan nan nan nan nan nan nan nan nan nan nan nan nan nan nan nan nan nan nan nan nan nan nan nan nan nan nan nan nan nan nan nan nan nan nan nan nan nan nan nan nan nan nan nan nan nan nan
Wind_Direction
nan 334 312 nan nan 96 nan nan nan 104 nan nan nan nan nan nan 0 nan nan nan nan nan 46 nan nan nan nan nan nan nan nan nan nan 350 344 337 340 341 342 346 341 344 358 357 354 0 13 9 2 360 357 351 345 nan nan nan nan 8 358 8 3 nan 14 14 nan nan nan nan nan nan nan nan nan nan nan nan nan nan nan nan nan nan nan nan nan nan
nan 100 80 55 70 92 112 127 nan nan nan nan 88 87 nan nan nan nan nan nan nan nan nan nan 25 nan nan nan nan nan nan nan nan nan 350 348 342 nan nan nan 354 353 11 347 345 15 16 15 7 7 4 357 359 5 nan nan nan 14 9 nan 16 11 12 nan 23 16 9 11 342 5 8 nan nan nan nan nan nan nan nan nan nan nan nan nan nan nan
107 nan 87 60 71 87 100 108 100 nan nan nan nan nan 142 146 nan nan nan nan nan nan 12 nan nan 34 nan nan nan nan nan nan nan nan nan 359 351 351 3 348 339 nan 6 350 11 19 18 21 12 14 12 9 10 9 nan nan nan nan nan 12 nan 8 nan nan nan nan 13 nan 8 9 nan nan nan nan nan nan nan nan nan nan nan nan nan nan nan nan
nan 71 84 nan 51 36 57 nan 108 nan nan 147 nan 128 nan nan nan nan nan nan nan nan nan nan nan nan 198 nan nan nan nan nan nan nan nan nan nan nan 11 358 352 nan 13 1 32 22 27 22 16 15 16 13 12 15 16 nan nan nan nan 17 15 9 nan 7 nan nan nan nan nan nan nan nan nan nan nan nan nan nan nan nan nan nan nan nan nan nan
nan nan nan nan nan 60 62 97 105 132 97 84 176 173 nan nan nan nan nan nan nan nan nan nan 276 nan nan nan nan nan nan nan 353 nan 7 358 1 344 333 16 11 13 6 28 30 31 27 15 15 16 16 12 15 18 15 15 nan nan nan 19 16 12 nan nan 5 nan nan nan nan nan nan nan nan nan nan nan nan nan nan nan nan 358 nan nan nan nan
nan nan nan nan nan nan nan nan 71 nan 95 nan 152 197 139 nan 158 nan nan nan nan nan nan nan nan nan nan nan nan nan nan nan 358 346 nan nan 358 nan 13 28 19 18 11 30 16 27 25 17 13 15 14 14 16 19 13 14 nan 16 16 16 14 16 13 nan nan nan nan 6 nan nan nan nan nan nan nan nan nan nan nan nan nan nan nan nan nan nan
38 68 nan 246 nan 53 nan 15 357 115 147 135 132 nan 134 180 nan nan nan nan nan nan nan nan nan nan nan nan nan nan nan nan 12 328 27 352 359 23 7 34 28 9 10 33 23 22 21 16 11 12 16 17 14 19 10 16 20 nan nan nan nan 19 13 nan nan nan nan nan nan nan nan nan 8 10 358 nan nan nan nan nan nan nan nan nan nan nan
41 47 nan 345 nan nan nan 53 nan 303 177 137 118 nan nan 132 nan nan nan nan nan nan nan nan nan nan nan nan nan nan nan nan 6 360 nan nan nan 15 6 36 23 10 15 22 26 23 21 21 14 18 20 26 20 20 15 20 21 nan nan nan nan 22 nan nan nan nan nan nan nan nan nan 20 nan nan nan nan 351 nan nan nan nan nan nan nan nan nan
9 nan nan 49 23 nan 47 nan 359 22 165 158 nan nan 326 nan nan 325 166 234 221 145 128 nan nan nan nan nan nan nan nan 43 17 nan nan 9 3 15 352 35 14 9 12 27 25 23 25 26 26 30 31 34 23 27 24 24 25 nan nan nan nan nan nan nan nan nan nan nan 26 22 nan nan nan nan nan nan nan 358 nan nan nan nan nan nan nan nan
nan nan nan 37 49 nan nan nan nan nan 109 124 nan nan nan 287 169 nan nan 271 248 144 nan 76 45 88 nan 58 nan nan 34 nan nan nan nan 350 nan 12 24 16 10 358 10 29 22 19 32 34 32 38 39 38 29 32 25 26 26 24 nan nan nan nan nan nan nan nan nan nan nan nan nan nan 18 14 nan nan nan nan nan nan nan nan nan nan nan nan
nan nan nan 8 23 nan nan nan nan nan nan nan nan nan 71 242 213 150 216 256 211 nan 118 85 nan nan nan nan 67 nan nan 42 nan 20 nan nan nan nan 9 nan nan 7 23 26 23 15 30 29 27 32 36 37 30 30 25 24 23 21 20 nan nan nan nan nan nan nan nan nan nan nan nan nan nan nan nan nan nan nan nan nan nan nan nan nan nan nan
nan nan nan nan nan nan nan nan nan nan nan nan 179 191 148 nan 292 39 nan 270 151 104 nan 40 nan 24 77 87 56 58 nan nan 20 nan nan nan nan nan 353 359 359 360 13 12 12 16 21 24 26 26 31 28 28 25 24 20 20 18 13 13 nan nan nan nan nan nan nan nan nan nan nan nan nan nan nan nan nan nan nan nan nan nan nan nan nan nan
nan nan nan 297 nan nan nan nan nan 7 46 nan nan 235 101 nan nan nan 21 nan nan 84 82 nan 313 121 85 28 32 nan nan nan nan nan nan nan nan 352 nan 353 nan nan 359 2 360 359 359 21 28 25 24 23 25 24 20 16 15 13 6 4 7 nan nan nan nan nan nan nan nan nan nan nan nan nan nan nan nan nan nan nan nan nan nan nan nan nan
nan nan nan 338 nan nan nan 242 160 nan nan 353 257 174 nan nan nan nan nan nan 116 89 nan 332 nan nan nan nan nan nan nan nan nan nan nan 328 304 nan nan 337 nan nan 351 340 330 336 354 6 22 23 20 20 22 21 18 11 11 9 359 359 3 359 nan nan nan nan nan nan nan nan nan nan nan nan nan nan nan nan nan nan nan nan nan nan nan nan
nan nan nan nan nan nan nan 292 nan nan nan 231 nan 87 nan nan nan nan nan nan 65 94 nan nan 280 nan nan nan nan nan nan nan nan nan 286 nan nan 357 nan nan nan 321 311 318 339 341 344 354 1 15 15 14 17 18 17 10 8 6 353 357 0 358 357 357 nan nan nan nan nan nan nan nan nan nan nan nan nan nan nan nan nan nan nan nan nan nan
nan nan nan nan nan nan nan nan nan nan nan nan nan nan nan 141 330 nan nan 68 nan nan nan nan nan nan 336 nan nan nan nan nan nan 282 297 nan nan nan nan 309 nan 313 320 334 328 331 343 341 348 358 2 2 8 10 14 9 4 3 355 357 360 358 356 355 nan nan nan nan nan nan nan nan nan nan nan nan nan nan nan nan nan nan nan nan nan nan
nan 161 nan nan nan nan nan nan nan nan nan 155 nan 129 nan 63 61 nan 38 51 75 98 nan nan 81 nan nan nan nan nan nan nan nan nan nan nan nan 290 301 nan nan nan nan 329 318 339 335 340 341 349 353 354 355 0 9 7 1 357 353 353 356 356 354 353 353 354 nan nan nan nan nan nan nan nan nan nan nan nan nan nan nan nan nan nan nan nan
201 nan nan nan nan nan nan nan nan nan nan nan nan nan nan nan nan nan 152 nan nan 86 nan nan 200 nan nan nan nan nan nan nan nan nan nan nan nan nan 308 320 nan nan nan nan 330 325 334 334 341 339 346 352 351 353 359 5 357 350 351 352 353 354 353 352 351 nan nan nan nan nan nan nan nan nan nan nan nan nan nan nan nan nan nan nan nan nan
nan nan nan nan nan nan nan nan nan 339 nan nan nan nan nan 130 nan 159 nan nan nan nan nan nan nan nan 255 nan nan nan nan nan nan nan nan nan nan nan nan nan nan nan 322 338 nan 322 327 326 336 344 345 358 349 344 355 0 356 351 349 349 350 354 354 351 352 351 nan nan nan nan nan nan nan nan nan nan nan nan nan nan nan nan nan nan nan nan
nan nan nan nan nan nan nan nan nan nan nan nan nan nan nan nan 151 nan nan 89 nan nan nan nan 329 325 329 335 nan nan nan nan nan nan nan nan nan nan nan nan nan 317 309 nan 330 330 335 337 346 353 348 0 340 338 354 353 357 352 351 348 347 352 356 354 354 350 354 nan nan nan nan nan nan nan nan nan nan nan nan nan nan nan nan nan nan nan
nan nan nan nan nan nan nan nan nan nan nan nan nan nan nan nan nan nan nan nan nan nan nan nan nan nan 334 324 nan nan nan nan nan nan nan nan nan nan nan 310 315 318 316 347 335 330 332 332 343 351 343 2 332 343 354 354 355 350 351 356 354 354 0 1 358 353 355 351 350 nan nan nan nan nan nan nan nan nan nan nan nan nan nan nan nan nan
nan nan nan nan nan nan nan nan nan nan nan nan nan nan nan nan nan nan nan nan nan nan nan nan nan 130 nan nan nan 291 nan nan nan nan nan nan nan 313 307 299 298 302 314 337 324 321 324 330 346 354 340 0 343 347 nan 349 352 352 352 360 359 356 3 4 360 355 352 351 347 348 nan nan nan nan nan nan nan nan nan nan nan nan nan nan nan nan
nan nan nan nan nan 177 nan nan nan nan nan nan nan nan nan nan 264 nan nan 168 nan nan nan 248 nan nan nan nan nan nan nan nan nan nan nan nan nan 308 305 307 307 312 317 322 318 315 317 326 340 350 338 nan 353 352 354 348 348 353 352 355 359 360 4 6 359 354 348 349 348 349 349 nan nan nan nan nan nan nan nan nan nan nan nan nan nan nan
228 nan nan nan nan nan nan nan nan nan nan nan nan nan nan nan nan 249 nan nan nan 131 nan nan nan nan nan nan nan nan nan nan nan nan nan nan nan 304 307 309 321 318 318 324 317 308 313 323 328 nan 345 357 nan 352 350 350 346 349 349 351 3 355 358 2 353 348 347 346 349 349 351 351 nan nan nan nan nan nan nan nan nan nan nan nan nan nan
nan nan nan nan nan nan nan nan nan nan nan nan nan nan nan 251 321 nan 261 223 194 nan nan nan nan nan nan nan nan nan nan nan nan nan nan 284 284 295 307 314 318 311 308 315 327 317 312 323 332 nan 349 358 356 351 344 345 347 349 346 346 358 349 345 352 349 344 343 347 348 349 352 354 355 nan nan nan nan nan nan nan nan nan nan nan nan nan
nan nan nan nan nan nan nan nan nan nan nan nan nan nan nan nan nan 270 nan 264 nan nan nan nan nan nan nan nan nan nan nan nan nan nan nan nan 288 295 301 303 301 298 300 322 335 318 320 338 nan 336 336 347 346 348 344 338 345 351 343 344 345 349 334 342 340 341 338 342 347 349 353 357 358 0 nan nan nan nan nan nan nan nan nan nan nan nan
nan nan nan nan nan nan nan nan nan nan nan nan nan nan nan nan nan nan nan nan nan nan nan nan nan 257 nan nan nan nan nan nan nan nan nan nan nan 287 279 285 287 294 313 333 316 300 322 335 330 330 333 335 337 341 341 336 344 351 349 337 337 337 335 329 334 336 337 340 346 351 353 355 358 360 1 nan nan nan nan nan nan nan nan nan nan nan
nan nan nan nan nan nan nan nan nan nan nan nan nan nan nan nan nan nan nan nan nan nan nan 250 nan nan nan nan nan nan nan nan nan nan nan 282 284 nan 286 287 299 313 323 314 306 315 335 324 329 326 309 305 327 331 340 337 346 342 328 340 335 326 330 332 330 334 336 339 343 347 351 353 355 358 358 355 353 nan nan nan nan nan nan nan nan nan
nan nan nan nan nan nan nan nan nan nan nan nan nan nan nan nan nan 237 247 nan 249 nan 225 244 nan 276 nan nan nan nan nan 293 nan nan nan 290 nan 291 290 307 nan 319 317 319 318 322 316 322 330 317 304 306 321 329 311 314 332 325 327 328 331 331 338 328 325 331 337 337 339 343 345 346 349 350 352 350 349 nan nan nan nan nan nan nan nan nan
nan nan nan nan nan nan nan nan nan nan nan nan nan nan nan nan nan nan nan nan nan nan nan nan nan nan nan nan nan nan 285 nan 296 nan 293 nan nan 297 nan 307 nan nan 316 313 312 316 323 333 325 317 313 316 324 323 333 nan 334 321 319 325 325 320 314 316 320 328 330 334 336 338 344 346 345 347 346 345 344 345 nan nan nan nan nan nan nan nan
nan nan nan nan nan nan nan nan nan nan nan nan nan nan nan nan nan nan nan nan nan nan nan nan 266 264 nan 251 nan 260 276 nan 289 nan nan 296 nan 302 nan nan 308 311 307 306 310 319 329 325 319 318 319 325 319 306 298 301 303 298 313 314 311 311 318 326 326 328 326 333 326 322 326 336 341 340 340 342 343 343 344 nan nan nan nan nan nan nan
201 nan nan nan nan nan nan nan nan nan nan nan nan nan nan nan nan nan nan nan nan 257 244 247 263 nan nan 275 274 277 280 nan 298 299 300 298 305 303 nan nan 315 313 309 313 320 322 330 319 319 326 327 315 314 310 310 314 316 305 307 307 300 303 312 310 312 321 326 327 330 329 331 335 335 330 342 344 344 345 344 338 338 nan nan nan nan nan
210 212 nan nan nan nan nan nan nan nan nan nan nan nan nan nan nan nan nan nan nan nan 241 nan 252 254 250 nan nan 283 nan nan nan nan 291 301 303 304 nan 311 314 312 313 nan nan nan 329 322 324 326 325 323 323 316 316 323 321 312 300 300 307 310 313 316 320 326 327 330 330 329 326 328 330 330 330 333 333 333 334 336 338 338 337 nan nan nan
212 216 214 nan nan nan nan nan nan nan nan nan nan nan nan nan nan nan nan nan nan nan nan nan 242 256 256 250 248 271 nan nan nan 289 292 288 290 298 nan 307 307 312 313 314 nan 321 317 320 323 326 322 313 300 297 298 300 299 302 305 304 306 311 314 324 329 333 324 319 320 318 322 325 328 329 329 328 330 332 333 333 333 333 335 337 336 335
212 217 222 220 nan nan nan nan nan nan nan nan nan nan nan nan nan nan nan nan nan nan nan nan nan 258 259 260 260 258 265 nan nan nan 295 nan 286 290 292 295 302 304 302 302 302 304 311 315 320 319 316 313 303 306 308 310 312 310 308 313 312 317 325 322 320 314 315 nan nan nan nan nan nan nan 326 328 330 331 332 333 333 332 332 333 334 334
nan 218 217 219 221 nan nan nan nan nan nan nan nan nan nan nan nan nan nan nan nan nan nan nan nan 269 265 266 264 258 265 nan nan nan 285 278 273 280 283 286 292 292 291 290 292 300 308 311 313 313 306 303 304 304 310 311 317 320 317 317 310 314 nan nan nan nan nan nan nan nan nan nan nan nan nan nan nan nan nan nan 324 326 326 329 331 331
nan nan 222 218 221 nan nan nan nan nan nan nan nan nan nan nan nan nan nan nan nan nan nan nan nan nan nan nan nan nan nan nan 264 259 271 278 281 274 281 289 285 285 289 295 299 301 302 306 309 306 307 306 304 305 305 307 306 nan nan nan nan nan nan nan nan nan nan nan nan nan nan nan nan nan nan nan nan nan nan nan nan nan 325 327 328 329
nan 231 232 226 nan nan nan nan nan nan nan nan nan 237 224 224 nan 225 nan nan nan nan nan nan nan nan nan nan nan nan nan 262 266 266 284 293 nan 295 289 287 287 289 292 295 298 300 302 301 299 293 288 nan nan nan nan nan nan nan nan nan nan nan nan nan nan nan nan nan nan nan nan nan nan nan nan nan nan nan nan nan nan nan nan nan nan nan
nan 225 nan 231 nan nan nan nan nan nan nan nan 249 252 233 232 nan 231 nan nan nan nan nan nan nan nan 259 264 265 nan nan 271 274 273 269 282 280 283 288 290 293 295 298 301 304 304 304 304 nan nan nan nan nan nan nan nan nan nan nan nan nan nan nan nan nan nan nan nan nan nan nan nan nan nan nan nan nan nan nan nan nan nan nan nan nan nan
nan 232 235 nan nan nan nan nan nan nan nan 241 nan 253 250 240 nan 239 nan nan 245 247 229 231 nan 247 253 264 272 275 nan nan 282 283 280 276 281 287 291 294 296 298 300 302 303 303 nan nan nan nan nan nan nan nan nan nan nan nan nan nan nan nan nan nan nan nan nan nan nan nan nan nan nan nan nan nan nan nan nan nan nan nan nan nan nan nan
nan nan 225 nan nan nan nan nan nan nan nan nan nan nan nan 242 nan nan nan nan 221 229 238 230 237 240 255 265 274 270 270 255 271 285 280 282 287 291 292 296 299 302 304 304 nan nan nan nan nan nan nan nan nan nan nan nan nan nan nan nan nan nan nan nan nan nan nan nan nan nan nan nan nan nan nan nan nan nan nan nan nan nan nan nan nan nan
nan 223 nan nan nan nan nan nan nan nan 222 219 223 nan 250 250 nan nan nan 245 235 230 225 232 nan 242 259 269 267 262 270 275 278 282 281 288 291 293 298 300 301 300 300 nan 309 305 nan nan nan nan nan nan nan nan nan nan nan nan nan nan nan nan nan nan nan nan nan nan nan nan nan nan nan nan nan nan nan nan nan nan nan nan nan nan nan nan
nan nan nan nan nan nan nan nan nan nan 224 207 205 208 238 nan nan 241 244 247 246 251 244 225 230 258 260 262 265 263 275 280 283 288 293 292 295 298 298 297 297 300 303 302 nan nan nan nan nan nan nan nan nan nan nan nan nan nan nan nan nan nan nan nan nan nan nan nan nan nan nan nan nan nan nan nan nan nan nan nan nan nan nan nan nan nan
nan nan nan nan nan nan nan nan nan 223 210 210 209 219 221 235 234 242 256 253 251 250 256 253 240 249 257 260 264 270 274 274 277 287 293 294 294 294 293 293 296 299 nan nan nan nan nan nan nan nan nan nan nan nan nan nan nan nan nan nan nan nan nan nan nan nan nan nan nan nan nan nan nan nan nan nan nan nan nan nan nan nan nan nan nan nan
nan nan nan nan nan nan 225 218 213 211 212 213 214 207 205 207 217 238 242 254 256 251 244 247 245 250 257 265 271 274 275 275 281 288 291 291 293 293 297 299 302 304 nan nan nan nan nan nan nan nan nan nan nan nan nan nan nan nan nan nan nan nan nan nan nan nan nan nan nan nan nan nan nan nan nan nan nan nan nan nan nan nan nan nan nan nan
nan nan nan nan nan nan nan 218 220 217 213 207 208 204 201 207 208 215 228 244 253 257 252 248 255 257 264 270 275 276 276 277 279 283 286 292 296 297 299 300 296 nan nan nan nan nan nan nan nan nan nan nan nan nan nan nan nan nan nan nan nan nan nan nan nan nan nan nan nan nan nan nan nan nan nan nan nan nan nan nan nan nan nan nan nan nan
nan nan nan nan nan nan nan 222 219 216 216 215 213 199 208 217 214 218 213 230 248 259 257 257 261 263 272 278 278 276 278 282 283 287 291 295 298 298 295 293 nan nan nan nan nan nan nan nan nan nan nan nan nan nan nan nan nan nan nan nan nan nan nan nan nan nan nan nan nan nan nan nan nan nan nan nan nan nan nan nan nan nan nan nan nan nan
nan nan nan nan nan nan nan nan nan 213 219 225 218 205 205 211 218 219 212 204 230 249 257 261 262 268 275 276 275 279 284 288 291 293 295 295 294 293 295 nan nan nan nan nan nan nan nan nan nan nan nan nan nan nan nan nan nan nan nan nan nan nan nan nan nan nan nan nan nan nan nan nan nan nan nan nan nan nan nan nan nan nan nan nan nan nan
nan nan nan nan nan nan nan 220 nan nan 219 223 215 210 204 208 211 225 204 203 213 231 251 256 265 268 271 272 275 280 285 288 291 294 293 291 291 293 nan nan nan nan nan nan nan nan nan nan nan nan nan nan nan nan nan nan nan nan nan nan nan nan nan nan nan nan nan nan nan nan nan nan nan nan nan nan nan nan nan nan nan nan nan nan nan nan
nan nan nan nan nan nan nan nan nan nan nan 219 218 214 204 202 207 210 215 219 225 219 229 255 257 260 266 272 274 279 284 285 287 288 289 290 292 292 nan nan nan nan nan nan nan nan nan nan nan nan nan nan nan nan nan nan nan nan nan nan nan nan nan nan nan nan nan nan nan nan nan nan nan nan nan nan nan nan nan nan nan nan nan nan nan nan
nan nan nan nan nan nan nan nan nan nan nan nan nan nan 201 201 208 214 220 238 233 225 215 214 256 262 268 271 272 278 279 281 284 287 287 288 289 nan nan nan nan nan nan nan nan nan nan nan nan nan nan nan nan nan nan nan nan nan nan nan nan nan nan nan nan nan nan nan nan nan nan nan nan nan nan nan nan nan nan nan nan nan nan nan nan nan